Miscellaneous Local Product
Issued by NWS North Platte, NE

Home | Current Version | Previous Version | Text Only | Print | Product List | Glossary On
Versions: 1 2 3 4 5 6 7 8 9 10 11 12 13 14 15 16 17 18 19 20 21 22 23 24 25 26 27 28 29 30 31 32 33 34 35 36 37 38 39 40 41 42 43 44 45 46 47 48 49 50
000
AXUS43 KLBF 170610
MISLBF


WESTERN AND NORTH CENTRAL NEBRASKA HOURLY WEATHER ROUNDUP
NATIONAL WEATHER SERVICE NORTH PLATTE NE
100 AM CDT THU AUG 17 2017

NOTE: "FAIR" INDICATES FEW OR NO CLOUDS BELOW 12,000 FEET WITH NO
SIGNIFICANT WEATHER AND/OR OBSTRUCTIONS TO VISIBILITY.

NOTE: STATIONS NOT REPORTING VARIABLES SUCH AS SKY/WEATHER OR
PRESSURE ARE PROVIDED BY RAWS AND APRS NETWORKS AND ARE NOT UNDER
NATIONAL WEATHER SERVICE QUALITY CONTROL.

...OBSERVATIONS IN AND NEAR THE EASTERN PANHANDLE OF NEBRASKA...

CITY           SKY/WX    TMP DP  RH WIND       PRES   REMARKS
PINE RIDGE     CLEAR     53  51  93 CALM      30.03S
GORDON         FAIR      52  50  93 CALM      30.04S
CHADRON        CLEAR     57  50  77 SW3       30.03R
ALLIANCE       CLEAR     50  48  93 W5        30.07R
SIDNEY         CLEAR     51  48  89 SW6       30.11F
CRESCENT LAKE    N/A     58  53  84 W6          N/A
$$

...OBSERVATIONS IN NORTHERN NEBRASKA AND FAR SOUTHERN SOUTH DAKOTA...

CITY           SKY/WX    TMP DP  RH WIND       PRES   REMARKS
WINNER         FAIR      59  54  83 SW5       29.94S
VALENTINE      CLEAR     56  47  71 NW3       29.99R
THEDFORD       CLEAR     55  53  92 W3        30.03R
AINSWORTH      CLEAR     54  53  96 W7        29.98S
O`NEILL        CLEAR     61  60  94 NW12      29.92R
ORD            CLEAR     57  54  89 NW6       29.94R
BROKEN BOW     CLEAR     60  55  83 N3        29.98R
VALENTINE NWR    N/A     53  50  91 NW3         N/A
HALSEY           N/A     58  53  82 W3          N/A
BUTTE            N/A     60  57  90 NW9         N/A
CHAMBERS         N/A     62  59  91 CALM        N/A
EWING            N/A     62  60  92 NW7         N/A
$$

...OBSERVATIONS IN SOUTHWEST NEBRASKA AND FAR NORTHEAST COLORADO...

CITY           SKY/WX    TMP DP  RH WIND       PRES   REMARKS
HOLYOKE        FAIR      59  55  88 W7        30.09F
IMPERIAL       CLEAR     59  54  83 W5        30.06R
OGALLALA       CLEAR     54  53  95 W5        30.05S
NORTH PLATTE   CLEAR     56  54  93 NW3       30.01F
MCCOOK         CLEAR     58  58 100 SW8       30.03R
LEXINGTON      CLEAR     58  56  92 NW6       29.99S
STAPLETON        N/A     56  51  85 CALM        N/A
GOTHENBURG       N/A     60  52  75 W3          N/A
CALLAWAY         N/A     58  55  89 N6          N/A
$$

...OBSERVATIONS IN CENTRAL LINCOLN COUNTY AREA...

CITY           SKY/WX    TMP DP  RH WIND       PRES   REMARKS
N.P. AIRPORT   CLEAR     56  54  93 NW3       30.01F
N.P. SOUTHEAST   N/A     60  55  83 CALM        N/A
N.P. HILLCREST   N/A     57  53  88 N3          N/A
$$

...SOME OBSERVATIONS FROM AROUND THE REGION...

CITY           SKY/WX    TMP DP  RH WIND       PRES   REMARKS
DENVER         PTCLDY    57  47  69 S10       30.18S
LIMON          CLOUDY    54  51  90 CALM      30.19S
ASPEN          CLOUDY    50  37  61 SW10      30.32S
LARAMIE        CLEAR     48  41  76 S10       30.25S
CASPER         PTCLDY    57  43  59 W6        30.09S
CHEYENNE       CLOUDY    57  46  66 SW10      30.19F
SCOTTSBLUFF    CLEAR     58  51  78 E5        30.07F
GRAND ISLAND   CLEAR     61  61 100 W8        29.95R
OMAHA          PTCLDY    68  60  75 W13G21    29.82S
SIOUX FALLS    CLOUDY    67  67 100 NW10G20   29.75S
PIERRE         CLEAR     57  55  93 NW7       29.91R
RAPID CITY     CLEAR     59  51  75 SE3       29.99F
BISMARCK       CLEAR     58  56  93 CALM      29.91F
KANSAS CITY    CLOUDY    69  67  93 S8        29.85R
HILL CITY      CLEAR     62  61  96 CALM      30.02S
WICHITA        CLOUDY    68  67  96 SW6       29.91F
DODGE CITY     CLEAR     63  58  83 NE7       30.05R
OKLAHOMA CITY  CLOUDY    71  70  96 CALM      29.93S
DALLAS         MOCLDY    88  72  58 S15       29.89S HX  94
AMARILLO       CLEAR     69  58  67 E6        30.09R
$$




USA.gov is the U.S. government's official web portal to all federal, state and local government web resources and services.